Location: Dillon
(41.1766°N, 107.0923°W)
Time: 05:13:58
(UTC+00:00)

SO-50 - Pass Details

Date: 10 July 2022
Orbit: 584 x 698 km, 64.6° (Epoch: 18 August)

Event Time Altitude Azimuth Distance (km) Brightness Sun altitude
Exits shadow 05:25:23 - 230° (SW) 2,116 ? -21.8°
Reaches altitude 10° 05:25:34 10° 230° (SW) 2,048 ? -21.8°
Maximum altitude 05:30:07 52° 307° (NW) 831 ? -22.2°
Drops below altitude 10° 05:34:51 10° 24° (NNE) 2,127 ? -22.6°
Sets 05:37:17 0° 30° (NNE) 3,059 ? -22.8°
